METEOR-M2 2

Last updated on Wed Sep 17 2025 00:02:23 GMT+0000 (Coordinated Universal Time)

1 44387U 19038A 25259.62528778 .00000104 00000+0 65010-4 0 9995 2 44387 98.8854 238.3303 0002373 85.9238 274.2211 14.24235764322354
UTC large
Height (km)
Speed (km/s)
/
Latitude / Longitude
Inclination (degrees)
Orbital Period (minutes)
Azimuth
Elevation
Range (km)
Doppler Factor

Next 0 passes for location: London (51.5072 / 0.1276)

Sorry there are no passes over London.